Location: Unspecified
(45.1364°N, 19.6789°E)
Time: 11:34:30
(UTC+02:00)

Iridium 5 - Visible Passes

Search period start: 28 October 2021 00:00
Search period end: 06 November 2021 23:00
Orbit: 530 x 724 km, 86.4° (Epoch: 27 October)

Date Brightness Start Highest point End Pass type
(mag) Time Alt. Az. Time Alt. Az. Time Alt. Az.
30 Oct8.220:08:50N20:08:50N19:57:12Svisible
31 Oct 8.1 05:08:36 10° NE 05:10:10 12° ENE 05:11:43 10° E visible
31 Oct7.717:51:03NNE17:51:03NNE17:41:19SEvisible
31 Oct 7.7 19:18:23 10° SSW 19:28:21 - N 19:18:46 12° SSW visible
01 Nov 7.5 05:27:07 10° NNE 05:30:14 22° ENE 05:33:17 10° SE visible
01 Nov 6.6 18:01:10 10° SSE 18:10:26 - NNE 18:03:06 21° SE visible
01 Nov 7.5 19:38:58 10° SW 19:47:42 - NNW 19:40:34 18° WSW visible
02 Nov 6.2 05:46:26 10° N 05:50:11 41° E 05:53:52 10° SSE visible
02 Nov 5.1 18:20:27 10° SSE 18:24:56 57° E 18:25:20 55° ENE visible
02 Nov 8.0 20:00:18 10° WSW 20:02:50 15° WNW 20:02:52 15° WNW visible
03 Nov 6.9 17:06:39 10° E 17:07:43 11° ENE 17:08:47 10° ENE visible
03 Nov 5.1 18:40:10 10° S 18:44:44 77° W 18:49:03 10° N visible
04 Nov 8.0 04:49:55 10° NE 04:51:51 13° ENE 04:53:47 10° ESE visible
04 Nov 6.3 17:24:06 10° SE 17:27:16 19° E 17:30:21 10° NE visible
04 Nov 6.3 19:00:20 10° SSW 19:04:36 40° W 19:08:39 10° NNW visible
05 Nov 7.3 05:08:39 10° NNE 05:11:53 24° ENE 05:15:06 10° SE visible
05 Nov 5.6 17:42:53 10° SSE 17:46:55 34° E 17:50:46 10° NNE visible
05 Nov 7.4 19:21:02 10° SW 19:24:32 22° WNW 19:27:56 10° NNW visible
06 Nov 5.9 05:28:01 10° N 05:31:48 47° E 05:35:34 10° SSE visible
06 Nov 4.9 18:02:14 10° S 18:06:38 64° E 18:10:49 10° N visible
06 Nov 8.1 19:42:40 10° W 19:44:35 13° WNW 19:46:28 10° NW visible
